Regional Weather Roundup
Issued by NWS

Home | Current Version | Previous Version | Text Only | Print | Product List | Glossary Off
Versions: 1 2 3 4 5 6 7 8 9 10 11 12 13 14 15 16 17 18 19 20 21 22 23 24 25 26 27 28 29 30 31 32 33 34 35 36 37 38 39 40 41 42 43 44 45 46 47 48 49 50

000
ASUS43 KIND 050609
RWRIN

WEATHER ROUNDUP FOR INDIANA
NATIONAL WEATHER SERVICE INDIANAPOLIS IN
100 AM EST THU MAR 05 2015

NOTE: "FAIR" INDICATES FEW OR NO CLOUDS BELOW 12,000 FEET WITH NO
SIGNIFICANT WEATHER AND/OR OBSTRUCTIONS TO VISIBILITY.

* - STATION DOES NOT REPORT WEATHER SUCH AS PRECIPITATION OR FOG.

+ - STATION NOT QUALITY CONTROLLED BY THE NATIONAL WEATHER SERVICE.
    USE DATA WITH CAUTION...ESPECIALLY DEWPOINT AND RELATIVE
    HUMIDITY OBSERVATIONS.

INZ001>003-010>013-019-020-050700-
NORTHWEST INDIANA

CITY           SKY/WX    TMP DP  RH WIND       PRES   REMARKS
GARY /AIRPORT/ PTCLDY    16  -3  43 NW8       30.34F WCI   5
KNOX *+          N/A     18  -6  35 NW6       30.30F WCI   9
LA PORTE +     MOCLDY    18   6  58 NW8G16    30.30F WCI   8
6HR MIN TEMP:  18; 6HR MAX TEMP:  21;

MICHIGAN CITY+ PTCLDY    18   0  45 NW7       30.31F WCI   8
MONTICELLO +   MOCLDY    15   8  71 NW9       30.31R WCI   4
6HR MIN TEMP:  15; 6HR MAX TEMP:  19;

RENSSELAER +   CLOUDY    18   9  68 NW10G16   30.33F WCI   6
VALPARAISO     MOCLDY    15   2  56 NW6       30.30F WCI   6
6HR MIN TEMP:  15; 6HR MAX TEMP:  19;


$$

LMZ046-743>745-050700-
SOUTHERN LAKE MICHIGAN

STATION/POSITION TIME  TEMP WIND        PRES
                       AIR  DIR/SP/G
                 (UTC) (F)  (DEG/KT/KT) (MB)
MICHIGAN CITY    0600   16  280/ 12/ 14   N/A

$$

INZ004-005-014>016-021>024-050700-
NORTH CENTRAL INDIANA

CITY           SKY/WX    TMP DP  RH WIND       PRES   REMARKS
GOSHEN         CLOUDY    17   5  59 N12       30.28R WCI   4
6HR MIN TEMP:  17; 6HR MAX TEMP:  19;

LOGANSPORT +   MOCLDY    18   9  68 NW5       30.30S WCI  11
PERU/GRISSOM   CLOUDY    19   5  56 NW9       30.27S WCI   7
6HR MIN TEMP:  19; 6HR MAX TEMP:  21;

ROCHESTER +    CLOUDY    21   7  53 NW10      30.30R WCI  10
SOUTH BEND     MOCLDY    18   5  57 NW8       30.30R WCI   8
6HR MIN TEMP:  17; 6HR MAX TEMP:  20;

WARSAW +       CLOUDY    19   7  58 NW9       30.28S WCI   9

$$

INZ006>009-017-018-025>027-050700-
NORTHEAST INDIANA

CITY           SKY/WX    TMP DP  RH WIND       PRES   REMARKS
ANGOLA *+      CLEAR     14   3  62 N7        30.25S WCI   4
AUBURN +       CLOUDY    19   5  53 NW6       30.28R WCI  11
FORT WAYNE     CLOUDY    18   6  59 N12       30.29R WCI   5
6HR MIN TEMP:  18; 6HR MAX TEMP:  21;

HUNTINGTON +   CLOUDY    18   3  52 N5        30.27F WCI  11
6HR MIN TEMP:  18; 6HR MAX TEMP:  21;


$$

INZ028-029-035-036-043>045-051>053-050700-
WEST CENTRAL INDIANA

CITY           SKY/WX    TMP DP  RH WIND       PRES   REMARKS
CRAWFORDSVL +  CLOUDY    15   0  51 N10       30.28F WCI   2
6HR MIN TEMP:  15; 6HR MAX TEMP:  17;

GREENCASTLE +  CLOUDY    18   3  53 N13       30.28F WCI   4
LAFAYETTE      MOCLDY    15   3  59 N13       30.31F WCI   1
6HR MIN TEMP:  15; 6HR MAX TEMP:  18;

TERRE HAUTE    CLOUDY    18   4  54 N17       30.33S WCI   3
6HR MIN TEMP:  18; 6HR MAX TEMP:  19;


$$

INZ030>032-037>040-046>048-054>057-064-065-050700-
CENTRAL INDIANA

CITY           SKY/WX    TMP DP  RH WIND       PRES   REMARKS
CP ATTERBURY + CLOUDY    23  12  63 N15       30.27F WCI  10
FRANKFORT +    MOCLDY    17   9  70 NW9       30.31R WCI   5
6HR MIN TEMP:  17; 6HR MAX TEMP:  20;

GREENWOOD *+   CLOUDY    19   7  58 N12       30.27F WCI   7
INDIANAPOLIS   NOT AVBL
-EAGLE CREEK   CLOUDY    18   9  68 N13       30.28S WCI   5
6HR MIN TEMP:  18; 6HR MAX TEMP:  19;

KOKOMO *+        N/A    N/A N/A N/A MISG        N/A
MARION +       CLOUDY    18   8  63 N6        30.28F WCI  10
MT COMFORT *+  CLOUDY    19   3  49 N15       30.27F WCI   5
SHELBYVILLE    CLOUDY    21   9  59 N12       30.26F WCI   9
6HR MIN TEMP:  21; 6HR MAX TEMP:  24;

ZIONSVILLE +   CLOUDY    18   9  69 NW9       30.28S WCI   7
6HR MIN TEMP:  18; 6HR MAX TEMP:  21;


$$

INZ033-034-041-042-049-050-058-059-050700-
EAST CENTRAL INDIANA

CITY           SKY/WX    TMP DP  RH WIND       PRES   REMARKS
MUNCIE         CLOUDY    19   8  62 N8        30.26F WCI   9
6HR MIN TEMP:  19; 6HR MAX TEMP:  23;


$$

INZ060-061-067>069-081>083-085>088-050700-
SOUTHWEST INDIANA

CITY           SKY/WX    TMP DP  RH WIND       PRES   REMARKS
EVANSVILLE     CLOUDY    21   8  57 N10       30.32R WCI  10
6HR MIN TEMP:  19; 6HR MAX TEMP:  21; 6HR PCP:  0.18;

HUNTINGBURG *+ CLOUDY    19   9  63 N13       30.29S WCI   7
6HR MIN TEMP:  18; 6HR MAX TEMP:  19; 6HR PCP:  0.04;

WASHINGTON +   CLOUDY    20   6  55 N13       30.30S WCI   7
6HR MIN TEMP:  19; 6HR MAX TEMP:  20;


$$

INZ062-063-066-070>080-084-089>092-050700-
SOUTH CENTRAL AND SOUTHEAST INDIANA

CITY           SKY/WX    TMP DP  RH WIND       PRES   REMARKS
BEDFORD +      CLOUDY    19  12  73 N7        30.26F WCI  10
BLOOMINGTON    CLOUDY    19  10  68 N15       30.26F WCI   5
6HR MIN TEMP:  19; 6HR MAX TEMP:  22; 6HR PCP: TRACE;

NORTH VERNON + CLOUDY    23   9  54 N13G18    30.25S WCI  11
SEYMOUR +      CLOUDY    23  14  68 N12       30.26F WCI  12

$$



USA.gov is the U.S. government's official web portal to all federal, state and local government web resources and services.